Location: Karlovy Vary
(50.2170°N, 12.9000°E)
Time: 05:16:41
(UTC+01:00)

ISS - Visible Passes

Search period start: 19 January 2019 00:00
Search period end: 29 January 2019 00:00
Orbit: 404 x 411 km, 51.6° (Epoch: 19 January)

Date Brightness Start Highest point End Pass type
(mag) Time Alt. Az. Time Alt. Az. Time Alt. Az.
22 Jan -0.7 19:29:48 10° SSW 19:29:54 11° SSW 19:29:54 11° SSW visible
23 Jan -1.9 18:39:04 10° S 18:40:55 19° SSE 18:40:55 19° SSE visible
24 Jan -1.5 17:48:54 10° SSE 17:50:21 12° SE 17:51:49 10° ESE visible
24 Jan -1.7 19:23:05 10° SW 19:24:35 24° SW 19:24:35 24° SW visible
25 Jan -3.0 18:31:57 10° SW 18:35:00 35° SSE 18:35:26 34° SE visible
25 Jan -0.2 20:08:05 10° W 20:08:09 10° W 20:08:09 10° W visible
26 Jan -2.2 17:41:02 10° SSW 17:43:43 24° SE 17:46:13 11° E visible
26 Jan -2.6 19:16:39 10° WSW 19:18:57 41° WSW 19:18:57 41° WSW visible
27 Jan -3.7 18:25:17 10° WSW 18:28:33 63° SSE 18:29:40 36° E visible
27 Jan -0.5 20:01:50 10° W 20:02:23 14° W 20:02:23 14° W visible
28 Jan -3.1 17:34:02 10° SW 17:37:10 43° SSE 17:40:20 10° E visible
28 Jan -3.2 19:10:20 10° W 19:13:04 56° WNW 19:13:04 56° WNW visible
